Time,TemperatureF,DewpointF,PressureIn,WindDirection,WindDirectionDegrees,WindSpeedMPH,WindSpeedGustMPH,Humidity,HourlyPrecipIn,Conditions,Clouds,dailyrainin,SoftwareType,DateUTC
2013-06-23 00:01:00,77.4,74.6,30.15,SSW,201,3.0,-999.0,91,0.00,,,0.01,Wunderground v.1.15,2013-06-23 04:01:00,
2013-06-23 00:02:00,77.4,74.6,30.15,SSW,200,2.0,-999.0,91,0.00,,,0.01,Wunderground v.1.15,2013-06-23 04:02:00,
2013-06-23 00:04:00,77.4,74.6,30.15,SSW,199,0.0,-999.0,91,0.00,,,0.01,Wunderground v.1.15,2013-06-23 04:04:00,
2013-06-23 00:06:00,77.4,74.6,30.15,SSW,200,5.0,-999.0,91,0.00,,,0.01,Wunderground v.1.15,2013-06-23 04:06:00,
2013-06-23 00:07:00,77.5,74.7,30.15,SSW,199,3.0,-999.0,91,0.00,,,0.01,Wunderground v.1.15,2013-06-23 04:07:00,
2013-06-23 00:12:00,77.6,74.8,30.15,SSW,204,3.0,-999.0,91,0.00,,,0.01,Wunderground v.1.15,2013-06-23 04:12:00,
2013-06-23 00:17:00,77.5,74.7,30.15,SSW,208,7.0,-999.0,91,0.00,,,0.01,Wunderground v.1.15,2013-06-23 04:17:00,
2013-06-23 00:22:00,77.5,74.7,30.15,SW,215,3.0,-999.0,91,0.00,,,0.01,Wunderground v.1.15,2013-06-23 04:22:00,
2013-06-23 00:28:00,77.6,74.8,30.15,SSW,208,0.0,-999.0,91,0.00,,,0.01,Wunderground v.1.15,2013-06-23 04:28:00,
2013-06-23 00:33:00,77.7,74.5,30.15,SSW,201,6.0,-999.0,90,0.00,,,0.01,Wunderground v.1.15,2013-06-23 04:33:00,
2013-06-23 00:38:00,77.7,74.5,30.15,SSW,206,5.0,-999.0,90,0.00,,,0.01,Wunderground v.1.15,2013-06-23 04:38:00,
2013-06-23 00:43:00,77.7,74.5,30.15,SW,214,0.0,-999.0,90,0.00,,,0.01,Wunderground v.1.15,2013-06-23 04:43:00,
2013-06-23 00:48:00,77.7,74.5,30.15,SW,226,0.0,-999.0,90,0.00,,,0.01,Wunderground v.1.15,2013-06-23 04:48:00,
2013-06-23 00:54:00,77.6,74.4,30.15,SW,221,0.0,-999.0,90,0.00,,,0.01,Wunderground v.1.15,2013-06-23 04:54:00,
2013-06-23 00:59:00,77.6,74.4,30.16,SW,225,2.0,-999.0,90,0.00,,,0.01,Wunderground v.1.15,2013-06-23 04:59:00,
2013-06-23 01:04:00,77.6,74.4,30.16,SW,224,5.0,-999.0,90,0.00,,,0.01,Wunderground v.1.15,2013-06-23 05:04:00,
2013-06-23 01:09:00,77.6,74.4,30.16,SW,225,3.0,-999.0,90,0.00,,,0.01,Wunderground v.1.15,2013-06-23 05:09:00,
2013-06-23 01:14:00,77.6,74.4,30.16,SW,223,5.0,-999.0,90,0.00,,,0.01,Wunderground v.1.15,2013-06-23 05:14:00,
2013-06-23 01:20:00,77.6,74.4,30.15,SW,227,0.0,-999.0,90,0.00,,,0.01,Wunderground v.1.15,2013-06-23 05:20:00,
2013-06-23 01:25:00,77.6,74.4,30.15,SW,228,0.0,-999.0,90,0.00,,,0.01,Wunderground v.1.15,2013-06-23 05:25:00,
2013-06-23 01:30:00,77.6,74.8,30.16,SW,230,1.0,-999.0,91,0.00,,,0.01,Wunderground v.1.15,2013-06-23 05:30:00,
2013-06-23 01:35:00,77.6,74.8,30.15,SW,231,6.0,-999.0,91,0.00,,,0.01,Wunderground v.1.15,2013-06-23 05:35:00,
2013-06-23 01:40:00,77.6,74.8,30.16,SW,231,0.0,-999.0,91,0.00,,,0.01,Wunderground v.1.15,2013-06-23 05:40:00,
2013-06-23 01:46:00,77.6,74.8,30.15,SW,234,0.0,-999.0,91,0.00,,,0.01,Wunderground v.1.15,2013-06-23 05:46:00,
2013-06-23 01:51:00,77.5,74.7,30.15,SW,229,3.0,-999.0,91,0.00,,,0.01,Wunderground v.1.15,2013-06-23 05:51:00,
2013-06-23 01:56:00,77.5,74.7,30.15,SW,229,7.0,-999.0,91,0.00,,,0.01,Wunderground v.1.15,2013-06-23 05:56:00,
2013-06-23 02:01:00,77.5,74.7,30.15,SW,225,4.0,-999.0,91,0.00,,,0.01,Wunderground v.1.15,2013-06-23 06:01:00,
2013-06-23 02:06:00,77.5,74.7,30.15,SW,225,4.0,-999.0,91,0.00,,,0.01,Wunderground v.1.15,2013-06-23 06:06:00,
2013-06-23 02:11:00,77.5,74.7,30.15,SW,226,2.0,-999.0,91,0.00,,,0.01,Wunderground v.1.15,2013-06-23 06:11:00,
2013-06-23 02:16:00,77.5,74.7,30.15,SW,226,2.0,-999.0,91,0.00,,,0.01,Wunderground v.1.15,2013-06-23 06:16:00,
2013-06-23 02:21:00,77.4,74.6,30.14,SW,227,0.0,-999.0,91,0.00,,,0.01,Wunderground v.1.15,2013-06-23 06:21:00,
2013-06-23 02:26:00,77.4,74.6,30.15,SW,229,0.0,-999.0,91,0.00,,,0.01,Wunderground v.1.15,2013-06-23 06:26:00,
2013-06-23 02:31:00,77.4,74.6,30.15,SW,225,2.0,-999.0,91,0.00,,,0.01,Wunderground v.1.15,2013-06-23 06:31:00,
2013-06-23 02:36:00,77.3,74.8,30.15,SW,225,3.0,-999.0,92,0.00,,,0.01,Wunderground v.1.15,2013-06-23 06:36:00,
2013-06-23 02:41:00,77.3,74.8,30.15,SW,225,2.0,-999.0,92,0.00,,,0.01,Wunderground v.1.15,2013-06-23 06:41:00,
2013-06-23 02:46:00,77.2,74.7,30.15,SW,226,2.0,-999.0,92,0.00,,,0.01,Wunderground v.1.15,2013-06-23 06:46:00,
2013-06-23 02:51:00,77.1,74.6,30.15,SW,226,0.0,-999.0,92,0.00,,,0.01,Wunderground v.1.15,2013-06-23 06:51:00,
2013-06-23 02:56:00,77.1,74.6,30.15,SW,225,0.0,-999.0,92,0.00,,,0.01,Wunderground v.1.15,2013-06-23 06:56:00,
2013-06-23 03:01:00,77.0,74.5,30.15,SW,225,2.0,-999.0,92,0.00,,,0.01,Wunderground v.1.15,2013-06-23 07:01:00,
2013-06-23 03:06:00,76.9,74.4,30.15,SW,226,0.0,-999.0,92,0.00,,,0.01,Wunderground v.1.15,2013-06-23 07:06:00,
2013-06-23 03:11:00,76.9,74.4,30.15,SW,226,3.0,-999.0,92,0.00,,,0.01,Wunderground v.1.15,2013-06-23 07:11:00,
2013-06-23 03:16:00,76.8,74.3,30.15,SW,226,0.0,-999.0,92,0.00,,,0.01,Wunderground v.1.15,2013-06-23 07:16:00,
2013-06-23 03:21:00,76.8,74.3,30.15,SW,226,2.0,-999.0,92,0.00,,,0.01,Wunderground v.1.15,2013-06-23 07:21:00,
2013-06-23 03:26:00,76.8,74.3,30.15,SW,226,0.0,-999.0,92,0.00,,,0.01,Wunderground v.1.15,2013-06-23 07:26:00,
2013-06-23 03:31:00,76.9,74.4,30.15,SW,226,4.0,-999.0,92,0.00,,,0.01,Wunderground v.1.15,2013-06-23 07:31:00,
2013-06-23 03:36:00,76.9,74.4,30.16,SW,226,0.0,-999.0,92,0.00,,,0.01,Wunderground v.1.15,2013-06-23 07:36:00,
2013-06-23 03:41:00,76.9,74.4,30.16,SW,226,3.0,-999.0,92,0.00,,,0.01,Wunderground v.1.15,2013-06-23 07:41:00,
2013-06-23 03:46:00,77.0,74.5,30.15,SW,226,0.0,-999.0,92,0.00,,,0.01,Wunderground v.1.15,2013-06-23 07:46:00,
2013-06-23 03:51:00,77.0,74.5,30.16,SW,226,4.0,-999.0,92,0.00,,,0.01,Wunderground v.1.15,2013-06-23 07:51:00,
2013-06-23 03:56:00,77.0,74.5,30.15,SW,226,0.0,-999.0,92,0.00,,,0.01,Wunderground v.1.15,2013-06-23 07:56:00,
2013-06-23 04:01:00,77.0,74.5,30.15,SW,227,0.0,-999.0,92,0.00,,,0.01,Wunderground v.1.15,2013-06-23 08:01:00,
2013-06-23 04:06:00,76.9,74.4,30.15,SW,227,0.0,-999.0,92,0.00,,,0.01,Wunderground v.1.15,2013-06-23 08:06:00,
2013-06-23 04:11:00,76.9,74.4,30.16,SW,227,3.0,-999.0,92,0.00,,,0.01,Wunderground v.1.15,2013-06-23 08:11:00,
2013-06-23 04:16:00,76.9,74.4,30.16,SW,228,2.0,-999.0,92,0.00,,,0.01,Wunderground v.1.15,2013-06-23 08:16:00,
2013-06-23 04:21:00,76.9,74.4,30.15,SW,223,3.0,-999.0,92,0.00,,,0.01,Wunderground v.1.15,2013-06-23 08:21:00,
2013-06-23 04:26:00,76.9,74.4,30.15,SW,225,2.0,-999.0,92,0.00,,,0.01,Wunderground v.1.15,2013-06-23 08:26:00,
2013-06-23 04:31:00,77.0,74.5,30.15,SW,225,0.0,-999.0,92,0.00,,,0.01,Wunderground v.1.15,2013-06-23 08:31:00,
2013-06-23 04:36:00,77.0,74.5,30.15,SW,226,3.0,-999.0,92,0.00,,,0.01,Wunderground v.1.15,2013-06-23 08:36:00,
2013-06-23 04:41:00,77.0,74.5,30.15,SW,227,0.0,-999.0,92,0.00,,,0.01,Wunderground v.1.15,2013-06-23 08:41:00,
2013-06-23 04:46:00,77.0,74.5,30.15,SW,229,3.0,-999.0,92,0.00,,,0.01,Wunderground v.1.15,2013-06-23 08:46:00,
2013-06-23 04:51:00,77.0,74.5,30.15,SW,226,2.0,-999.0,92,0.00,,,0.01,Wunderground v.1.15,2013-06-23 08:51:00,
2013-06-23 04:56:00,76.9,74.4,30.16,SW,225,0.0,-999.0,92,0.00,,,0.01,Wunderground v.1.15,2013-06-23 08:56:00,
2013-06-23 05:01:00,76.9,74.4,30.16,SW,224,1.0,-999.0,92,0.00,,,0.01,Wunderground v.1.15,2013-06-23 09:01:00,
2013-06-23 05:06:00,76.9,74.4,30.16,SW,223,1.0,-999.0,92,0.00,,,0.01,Wunderground v.1.15,2013-06-23 09:06:00,
2013-06-23 05:11:00,76.8,74.3,30.16,SW,223,1.0,-999.0,92,0.00,,,0.01,Wunderground v.1.15,2013-06-23 09:11:00,
2013-06-23 05:16:00,76.7,74.2,30.15,SW,224,0.0,-999.0,92,0.00,,,0.01,Wunderground v.1.15,2013-06-23 09:16:00,
2013-06-23 05:21:00,76.7,74.2,30.16,SW,224,2.0,-999.0,92,0.00,,,0.01,Wunderground v.1.15,2013-06-23 09:21:00,
2013-06-23 05:26:00,76.6,74.1,30.16,SW,224,0.0,-999.0,92,0.00,,,0.01,Wunderground v.1.15,2013-06-23 09:26:00,
2013-06-23 05:31:00,76.6,74.1,30.16,SW,224,0.0,-999.0,92,0.00,,,0.01,Wunderground v.1.15,2013-06-23 09:31:00,
2013-06-23 05:36:00,76.5,74.0,30.16,SW,224,3.0,-999.0,92,0.00,,,0.01,Wunderground v.1.15,2013-06-23 09:36:00,
2013-06-23 05:41:00,76.5,74.0,30.16,SW,224,1.0,-999.0,92,0.00,,,0.01,Wunderground v.1.15,2013-06-23 09:41:00,
2013-06-23 05:46:00,76.5,74.0,30.17,SW,224,3.0,-999.0,92,0.00,,,0.01,Wunderground v.1.15,2013-06-23 09:46:00,
2013-06-23 05:51:00,76.5,74.0,30.17,SW,224,1.0,-999.0,92,0.00,,,0.01,Wunderground v.1.15,2013-06-23 09:51:00,
2013-06-23 05:56:00,76.4,73.9,30.17,SW,224,0.0,-999.0,92,0.00,,,0.01,Wunderground v.1.15,2013-06-23 09:56:00,
2013-06-23 06:01:00,76.4,73.9,30.17,SW,224,0.0,-999.0,92,0.00,,,0.01,Wunderground v.1.15,2013-06-23 10:01:00,
2013-06-23 06:06:00,76.3,73.8,30.16,SW,224,0.0,-999.0,92,0.00,,,0.01,Wunderground v.1.15,2013-06-23 10:06:00,
2013-06-23 06:11:00,76.3,73.8,30.17,SW,224,0.0,-999.0,92,0.00,,,0.01,Wunderground v.1.15,2013-06-23 10:11:00,
2013-06-23 06:16:00,76.3,73.8,30.17,SW,224,0.0,-999.0,92,0.00,,,0.01,Wunderground v.1.15,2013-06-23 10:16:00,
2013-06-23 06:21:00,76.3,73.8,30.17,SW,224,0.0,-999.0,92,0.00,,,0.01,Wunderground v.1.15,2013-06-23 10:21:00,
2013-06-23 06:26:00,76.3,73.8,30.17,SW,224,0.0,-999.0,92,0.00,,,0.01,Wunderground v.1.15,2013-06-23 10:26:00,
2013-06-23 06:31:00,76.4,74.2,30.17,SW,224,0.0,-999.0,93,0.00,,,0.01,Wunderground v.1.15,2013-06-23 10:31:00,
2013-06-23 06:36:00,76.5,74.3,30.17,SW,224,0.0,-999.0,93,0.00,,,0.01,Wunderground v.1.15,2013-06-23 10:36:00,
2013-06-23 06:41:00,76.6,74.4,30.17,SW,224,3.0,-999.0,93,0.00,,,0.01,Wunderground v.1.15,2013-06-23 10:41:00,
2013-06-23 06:46:00,76.7,74.5,30.17,SW,224,0.0,-999.0,93,0.00,,,0.01,Wunderground v.1.15,2013-06-23 10:46:00,
2013-06-23 06:51:00,76.9,74.4,30.17,SW,224,0.0,-999.0,92,0.00,,,0.01,Wunderground v.1.15,2013-06-23 10:51:00,
2013-06-23 06:56:00,77.1,74.6,30.17,SW,224,0.0,-999.0,92,0.00,,,0.01,Wunderground v.1.15,2013-06-23 10:56:00,
2013-06-23 07:01:00,77.3,74.8,30.17,SW,224,0.0,-999.0,92,0.00,,,0.01,Wunderground v.1.15,2013-06-23 11:01:00,
2013-06-23 07:07:00,77.5,75.0,30.17,SW,224,0.0,-999.0,92,0.00,,,0.01,Wunderground v.1.15,2013-06-23 11:07:00,
2013-06-23 07:12:00,77.7,75.2,30.18,SW,224,4.0,-999.0,92,0.00,,,0.01,Wunderground v.1.15,2013-06-23 11:12:00,
2013-06-23 07:17:00,78.0,75.5,30.18,SW,224,0.0,-999.0,92,0.00,,,0.01,Wunderground v.1.15,2013-06-23 11:17:00,
2013-06-23 07:22:00,78.2,75.7,30.18,SW,224,0.0,-999.0,92,0.00,,,0.01,Wunderground v.1.15,2013-06-23 11:22:00,
2013-06-23 07:27:00,78.3,75.5,30.18,SW,224,0.0,-999.0,91,0.00,,,0.01,Wunderground v.1.15,2013-06-23 11:27:00,
2013-06-23 07:32:00,78.5,75.7,30.18,SW,224,0.0,-999.0,91,0.00,,,0.01,Wunderground v.1.15,2013-06-23 11:32:00,
2013-06-23 07:37:00,78.8,75.9,30.18,SW,224,5.0,-999.0,91,0.00,,,0.01,Wunderground v.1.15,2013-06-23 11:37:00,
2013-06-23 07:42:00,78.9,75.7,30.18,SW,224,0.0,-999.0,90,0.00,,,0.01,Wunderground v.1.15,2013-06-23 11:42:00,
2013-06-23 07:47:00,79.1,75.9,30.18,SW,224,0.0,-999.0,90,0.00,,,0.01,Wunderground v.1.15,2013-06-23 11:47:00,
2013-06-23 07:52:00,79.3,76.1,30.18,SW,224,3.0,-999.0,90,0.00,,,0.01,Wunderground v.1.15,2013-06-23 11:52:00,
2013-06-23 07:57:00,79.4,75.9,30.18,SW,224,2.0,-999.0,89,0.00,,,0.01,Wunderground v.1.15,2013-06-23 11:57:00,
2013-06-23 08:02:00,79.5,76.0,30.18,SW,224,0.0,-999.0,89,0.00,,,0.01,Wunderground v.1.15,2013-06-23 12:02:00,
2013-06-23 08:07:00,79.6,75.7,30.18,SW,224,0.0,-999.0,88,0.00,,,0.01,Wunderground v.1.15,2013-06-23 12:07:00,
2013-06-23 08:12:00,79.7,75.8,30.18,SW,224,0.0,-999.0,88,0.00,,,0.01,Wunderground v.1.15,2013-06-23 12:12:00,
2013-06-23 08:17:00,79.8,75.9,30.19,SW,224,0.0,-999.0,88,0.00,,,0.01,Wunderground v.1.15,2013-06-23 12:17:00,
2013-06-23 08:22:00,79.9,75.7,30.19,SW,224,0.0,-999.0,87,0.00,,,0.01,Wunderground v.1.15,2013-06-23 12:22:00,
2013-06-23 08:27:00,80.1,75.9,30.19,SW,229,1.0,-999.0,87,0.00,,,0.01,Wunderground v.1.15,2013-06-23 12:27:00,
2013-06-23 08:32:00,80.1,75.9,30.19,WSW,242,0.0,-999.0,87,0.00,,,0.01,Wunderground v.1.15,2013-06-23 12:32:00,
2013-06-23 08:37:00,80.2,75.6,30.19,WSW,242,4.0,-999.0,86,0.00,,,0.01,Wunderground v.1.15,2013-06-23 12:37:00,
2013-06-23 08:42:00,80.0,75.4,30.19,WSW,242,0.0,-999.0,86,0.00,,,0.01,Wunderground v.1.15,2013-06-23 12:42:00,
2013-06-23 08:47:00,79.9,75.7,30.19,WSW,242,3.0,-999.0,87,0.00,,,0.01,Wunderground v.1.15,2013-06-23 12:47:00,
2013-06-23 08:52:00,79.3,75.1,30.19,WSW,242,0.0,-999.0,87,0.00,,,0.01,Wunderground v.1.15,2013-06-23 12:52:00,
2013-06-23 08:57:00,79.1,75.2,30.20,WSW,242,5.0,-999.0,88,0.00,,,0.01,Wunderground v.1.15,2013-06-23 12:57:00,
2013-06-23 09:02:00,78.9,75.4,30.20,WSW,243,0.0,-999.0,89,0.00,,,0.01,Wunderground v.1.15,2013-06-23 13:02:00,
2013-06-23 09:07:00,78.7,75.2,30.20,WSW,248,0.0,-999.0,89,0.00,,,0.01,Wunderground v.1.15,2013-06-23 13:07:00,
2013-06-23 09:12:00,78.8,75.3,30.19,WSW,248,2.0,-999.0,89,0.00,,,0.01,Wunderground v.1.15,2013-06-23 13:12:00,
2013-06-23 09:17:00,78.9,75.4,30.19,WSW,248,3.0,-999.0,89,0.00,,,0.01,Wunderground v.1.15,2013-06-23 13:17:00,
2013-06-23 09:22:00,78.9,75.4,30.19,WSW,248,0.0,-999.0,89,0.00,,,0.01,Wunderground v.1.15,2013-06-23 13:22:00,
2013-06-23 09:27:00,78.9,75.4,30.19,WSW,248,0.0,-999.0,89,0.00,,,0.01,Wunderground v.1.15,2013-06-23 13:27:00,
2013-06-23 09:32:00,79.3,75.4,30.19,WSW,258,0.0,-999.0,88,0.00,,,0.01,Wunderground v.1.15,2013-06-23 13:32:00,
2013-06-23 09:37:00,79.4,75.5,30.19,WSW,258,0.0,-999.0,88,0.00,,,0.01,Wunderground v.1.15,2013-06-23 13:37:00,
2013-06-23 09:42:00,79.6,75.7,30.19,WSW,258,0.0,-999.0,88,0.00,,,0.01,Wunderground v.1.15,2013-06-23 13:42:00,
2013-06-23 09:47:00,79.8,75.6,30.20,WSW,258,3.0,-999.0,87,0.00,,,0.01,Wunderground v.1.15,2013-06-23 13:47:00,
2013-06-23 09:52:00,80.0,75.4,30.19,WSW,244,2.0,-999.0,86,0.00,,,0.01,Wunderground v.1.15,2013-06-23 13:52:00,
2013-06-23 09:57:00,80.2,75.6,30.19,WSW,244,8.0,-999.0,86,0.00,,,0.01,Wunderground v.1.15,2013-06-23 13:57:00,
2013-06-23 10:03:00,80.3,75.0,30.19,WSW,248,1.0,-999.0,84,0.00,,,0.01,Wunderground v.1.15,2013-06-23 14:03:00,
2013-06-23 10:08:00,80.6,75.3,30.19,WSW,240,0.0,-999.0,84,0.00,,,0.01,Wunderground v.1.15,2013-06-23 14:08:00,
2013-06-23 10:13:00,80.7,75.1,30.19,WSW,238,0.0,-999.0,83,0.00,,,0.01,Wunderground v.1.15,2013-06-23 14:13:00,
2013-06-23 10:18:00,80.9,74.5,30.19,SSW,207,1.0,-999.0,81,0.00,,,0.01,Wunderground v.1.15,2013-06-23 14:18:00,
2013-06-23 10:23:00,81.0,74.6,30.20,SW,218,5.0,-999.0,81,0.00,,,0.01,Wunderground v.1.15,2013-06-23 14:23:00,
2013-06-23 10:28:00,81.0,74.2,30.20,SW,222,5.0,-999.0,80,0.00,,,0.01,Wunderground v.1.15,2013-06-23 14:28:00,
2013-06-23 10:33:00,80.9,74.5,30.21,SW,229,5.0,-999.0,81,0.00,,,0.01,Wunderground v.1.15,2013-06-23 14:33:00,
2013-06-23 10:38:00,80.5,74.1,30.20,WSW,238,2.0,-999.0,81,0.00,,,0.01,Wunderground v.1.15,2013-06-23 14:38:00,
2013-06-23 10:43:00,80.1,74.1,30.20,SW,228,6.0,-999.0,82,0.00,,,0.01,Wunderground v.1.15,2013-06-23 14:43:00,
2013-06-23 10:48:00,79.7,74.1,30.20,SW,219,3.0,-999.0,83,0.00,,,0.01,Wunderground v.1.15,2013-06-23 14:48:00,
2013-06-23 10:53:00,79.3,74.0,30.20,SW,219,0.0,-999.0,84,0.00,,,0.01,Wunderground v.1.15,2013-06-23 14:53:00,
2013-06-23 10:58:00,79.2,74.3,30.20,SW,219,0.0,-999.0,85,0.00,,,0.01,Wunderground v.1.15,2013-06-23 14:58:00,
2013-06-23 11:04:00,79.2,74.3,30.20,SW,219,3.0,-999.0,85,0.00,,,0.01,Wunderground v.1.15,2013-06-23 15:04:00,
2013-06-23 11:09:00,79.4,74.5,30.20,SW,219,0.0,-999.0,85,0.00,,,0.01,Wunderground v.1.15,2013-06-23 15:09:00,
2013-06-23 11:14:00,79.5,74.2,30.20,SW,221,4.0,-999.0,84,0.00,,,0.01,Wunderground v.1.15,2013-06-23 15:14:00,
2013-06-23 11:19:00,79.5,74.2,30.21,SW,221,0.0,-999.0,84,0.00,,,0.01,Wunderground v.1.15,2013-06-23 15:19:00,
2013-06-23 11:24:00,79.5,74.2,30.21,SW,224,8.0,-999.0,84,0.00,,,0.01,Wunderground v.1.15,2013-06-23 15:24:00,
2013-06-23 11:29:00,79.4,73.8,30.21,SW,221,8.0,-999.0,83,0.00,,,0.01,Wunderground v.1.15,2013-06-23 15:29:00,
2013-06-23 11:34:00,79.3,73.7,30.20,SW,219,0.0,-999.0,83,0.00,,,0.01,Wunderground v.1.15,2013-06-23 15:34:00,
2013-06-23 11:39:00,79.4,73.8,30.21,SW,219,3.0,-999.0,83,0.00,,,0.01,Wunderground v.1.15,2013-06-23 15:39:00,
2013-06-23 11:44:00,79.6,74.3,30.21,SW,218,3.0,-999.0,84,0.00,,,0.01,Wunderground v.1.15,2013-06-23 15:44:00,
2013-06-23 11:49:00,79.5,74.2,30.21,SSW,211,3.0,-999.0,84,0.00,,,0.01,Wunderground v.1.15,2013-06-23 15:49:00,
2013-06-23 11:54:00,79.6,74.7,30.21,SSW,209,4.0,-999.0,85,0.00,,,0.01,Wunderground v.1.15,2013-06-23 15:54:00,
2013-06-23 11:59:00,79.2,74.3,30.21,SSW,207,8.0,-999.0,85,0.00,,,0.01,Wunderground v.1.15,2013-06-23 15:59:00,
2013-06-23 12:04:00,79.2,74.3,30.21,SW,215,7.0,-999.0,85,0.00,,,0.01,Wunderground v.1.15,2013-06-23 16:04:00,
2013-06-23 12:09:00,79.3,74.4,30.20,SW,216,7.0,-999.0,85,0.00,,,0.01,Wunderground v.1.15,2013-06-23 16:09:00,
2013-06-23 12:14:00,79.3,74.4,30.20,SSW,213,0.0,-999.0,85,0.00,,,0.01,Wunderground v.1.15,2013-06-23 16:14:00,
2013-06-23 12:19:00,79.6,74.7,30.21,SW,222,6.0,-999.0,85,0.00,,,0.00,Wunderground v.1.15,2013-06-23 16:19:00,
2013-06-23 12:24:00,79.6,74.7,30.20,SW,225,1.0,-999.0,85,0.00,,,0.00,Wunderground v.1.15,2013-06-23 16:24:00,
2013-06-23 12:29:00,79.6,74.7,30.20,SW,225,7.0,-999.0,85,0.00,,,0.00,Wunderground v.1.15,2013-06-23 16:29:00,
2013-06-23 12:34:00,79.4,75.2,30.20,SW,227,3.0,-999.0,87,0.00,,,0.00,Wunderground v.1.15,2013-06-23 16:34:00,
2013-06-23 12:39:00,79.3,75.1,30.20,SW,228,5.0,-999.0,87,0.00,,,0.00,Wunderground v.1.15,2013-06-23 16:39:00,
2013-06-23 12:44:00,79.1,75.2,30.20,SW,227,2.0,-999.0,88,0.00,,,0.00,Wunderground v.1.15,2013-06-23 16:44:00,
2013-06-23 12:49:00,79.1,75.2,30.20,SW,227,3.0,-999.0,88,0.00,,,0.00,Wunderground v.1.15,2013-06-23 16:49:00,
2013-06-23 12:54:00,79.2,75.3,30.20,SW,227,0.0,-999.0,88,0.00,,,0.00,Wunderground v.1.15,2013-06-23 16:54:00,
2013-06-23 12:57:00,79.3,75.4,30.20,SW,227,0.0,-999.0,88,0.00,,,0.00,Wunderground v.1.15,2013-06-23 16:57:00,
2013-06-23 12:58:00,79.3,75.4,30.20,SW,227,0.0,-999.0,88,0.00,,,0.00,Wunderground v.1.15,2013-06-23 16:58:00,
2013-06-23 13:03:00,79.4,75.2,30.19,SW,226,3.0,-999.0,87,0.00,,,0.00,Wunderground v.1.15,2013-06-23 17:03:00,
2013-06-23 13:08:00,79.3,75.1,30.19,SW,224,4.0,-999.0,87,0.00,,,0.00,Wunderground v.1.15,2013-06-23 17:08:00,
2013-06-23 13:13:00,79.3,75.1,30.19,SW,214,2.0,-999.0,87,0.00,,,0.00,Wunderground v.1.15,2013-06-23 17:13:00,
2013-06-23 13:18:00,79.5,75.3,30.20,SW,229,3.0,-999.0,87,0.00,,,0.00,Wunderground v.1.15,2013-06-23 17:18:00,
2013-06-23 13:23:00,79.6,75.0,30.20,SW,228,8.0,-999.0,86,0.00,,,0.00,Wunderground v.1.15,2013-06-23 17:23:00,
2013-06-23 13:28:00,79.6,74.3,30.20,WSW,239,1.0,-999.0,84,0.00,,,0.00,Wunderground v.1.15,2013-06-23 17:28:00,
2013-06-23 13:33:00,79.8,74.2,30.20,SW,215,5.0,-999.0,83,0.00,,,0.00,Wunderground v.1.15,2013-06-23 17:33:00,
2013-06-23 13:38:00,79.8,73.4,30.20,SSW,213,6.0,-999.0,81,0.00,,,0.00,Wunderground v.1.15,2013-06-23 17:38:00,
2013-06-23 13:43:00,80.0,72.9,30.20,SSW,209,4.0,-999.0,79,0.00,,,0.00,Wunderground v.1.15,2013-06-23 17:43:00,
2013-06-23 13:48:00,80.3,72.8,30.20,SW,219,4.0,-999.0,78,0.00,,,0.00,Wunderground v.1.15,2013-06-23 17:48:00,
2013-06-23 13:53:00,80.2,73.5,30.20,SW,219,5.0,-999.0,80,0.00,,,0.00,Wunderground v.1.15,2013-06-23 17:53:00,
2013-06-23 13:58:00,79.3,73.7,30.20,SW,233,3.0,-999.0,83,0.00,,,0.00,Wunderground v.1.15,2013-06-23 17:58:00,
2013-06-23 14:03:00,78.8,73.9,30.20,SW,222,4.0,-999.0,85,0.00,,,0.00,Wunderground v.1.15,2013-06-23 18:03:00,
2013-06-23 14:08:00,78.0,73.5,30.20,SW,235,5.0,-999.0,86,0.00,,,0.00,Wunderground v.1.15,2013-06-23 18:08:00,
2013-06-23 14:13:00,77.3,73.1,30.20,SW,229,5.0,-999.0,87,0.00,,,0.00,Wunderground v.1.15,2013-06-23 18:13:00,
2013-06-23 14:18:00,77.0,73.2,30.20,SW,226,6.0,-999.0,88,0.00,,,0.00,Wunderground v.1.15,2013-06-23 18:18:00,
2013-06-23 14:23:00,76.8,73.3,30.20,SW,228,4.0,-999.0,89,0.00,,,0.00,Wunderground v.1.15,2013-06-23 18:23:00,
2013-06-23 14:28:00,76.7,73.5,30.20,SW,219,9.0,-999.0,90,0.00,,,0.01,Wunderground v.1.15,2013-06-23 18:28:00,
2013-06-23 14:33:00,76.4,73.6,30.19,SW,219,6.0,-999.0,91,0.11,,,0.02,Wunderground v.1.15,2013-06-23 18:33:00,
2013-06-23 14:38:00,76.4,73.9,30.20,SW,219,5.0,-999.0,92,0.07,,,0.02,Wunderground v.1.15,2013-06-23 18:38:00,
2013-06-23 14:43:00,76.5,74.0,30.19,SW,227,2.0,-999.0,92,0.05,,,0.02,Wunderground v.1.15,2013-06-23 18:43:00,
2013-06-23 14:48:00,76.7,74.5,30.19,SW,223,8.0,-999.0,93,0.00,,,0.02,Wunderground v.1.15,2013-06-23 18:48:00,
2013-06-23 14:53:00,76.8,74.3,30.19,SSW,213,9.0,-999.0,92,0.00,,,0.02,Wunderground v.1.15,2013-06-23 18:53:00,
2013-06-23 14:58:00,76.9,74.7,30.19,SSW,213,7.0,-999.0,93,0.00,,,0.02,Wunderground v.1.15,2013-06-23 18:58:00,
2013-06-23 15:03:00,76.9,74.7,30.18,SSW,213,7.0,-999.0,93,0.00,,,0.02,Wunderground v.1.15,2013-06-23 19:03:00,
2013-06-23 15:08:00,76.8,74.6,30.18,SSW,203,8.0,-999.0,93,0.00,,,0.02,Wunderground v.1.15,2013-06-23 19:08:00,
2013-06-23 15:13:00,77.0,74.8,30.18,SSW,192,5.0,-999.0,93,0.00,,,0.02,Wunderground v.1.15,2013-06-23 19:13:00,
2013-06-23 15:18:00,77.1,74.9,30.18,SSW,194,8.0,-999.0,93,0.00,,,0.02,Wunderground v.1.15,2013-06-23 19:18:00,
2013-06-23 15:23:00,77.1,74.6,30.18,SSW,207,9.0,-999.0,92,0.00,,,0.02,Wunderground v.1.15,2013-06-23 19:23:00,
2013-06-23 15:28:00,77.0,74.5,30.18,SW,220,9.0,-999.0,92,0.00,,,0.02,Wunderground v.1.15,2013-06-23 19:28:00,
2013-06-23 15:33:00,76.7,74.2,30.18,SW,222,15.0,-999.0,92,0.00,,,0.02,Wunderground v.1.15,2013-06-23 19:33:00,
2013-06-23 15:38:00,76.8,74.3,30.18,SSW,204,9.0,-999.0,92,0.00,,,0.02,Wunderground v.1.15,2013-06-23 19:38:00,
2013-06-23 15:43:00,76.9,74.4,30.17,SSW,211,8.0,-999.0,92,0.00,,,0.02,Wunderground v.1.15,2013-06-23 19:43:00,
2013-06-23 15:48:00,76.8,74.3,30.17,South,186,9.0,-999.0,92,0.00,,,0.02,Wunderground v.1.15,2013-06-23 19:48:00,
2013-06-23 15:53:00,76.7,74.2,30.17,SSW,205,13.0,-999.0,92,0.00,,,0.02,Wunderground v.1.15,2013-06-23 19:53:00,
2013-06-23 15:58:00,76.8,74.3,30.17,SW,215,2.0,-999.0,92,0.00,,,0.02,Wunderground v.1.15,2013-06-23 19:58:00,
2013-06-23 16:03:00,76.7,74.2,30.17,SSW,200,9.0,-999.0,92,0.00,,,0.02,Wunderground v.1.15,2013-06-23 20:03:00,
2013-06-23 16:08:00,76.7,74.2,30.17,SSW,207,7.0,-999.0,92,0.00,,,0.02,Wunderground v.1.15,2013-06-23 20:08:00,
2013-06-23 16:14:00,76.7,73.9,30.18,SSW,207,17.0,-999.0,91,0.00,,,0.02,Wunderground v.1.15,2013-06-23 20:14:00,
2013-06-23 16:19:00,76.9,74.1,30.17,SW,217,11.0,-999.0,91,0.00,,,0.02,Wunderground v.1.15,2013-06-23 20:19:00,
2013-06-23 16:24:00,77.1,74.3,30.18,SSW,194,11.0,-999.0,91,0.00,,,0.02,Wunderground v.1.15,2013-06-23 20:24:00,
2013-06-23 16:29:00,77.4,74.2,30.17,SW,215,5.0,-999.0,90,0.00,,,0.02,Wunderground v.1.15,2013-06-23 20:29:00,
2013-06-23 16:34:00,77.5,74.3,30.18,SSW,203,11.0,-999.0,90,0.00,,,0.02,Wunderground v.1.15,2013-06-23 20:34:00,
2013-06-23 16:39:00,77.8,74.6,30.18,SW,222,6.0,-999.0,90,0.00,,,0.02,Wunderground v.1.15,2013-06-23 20:39:00,
2013-06-23 16:44:00,78.1,74.9,30.17,SSW,213,3.0,-999.0,90,0.00,,,0.02,Wunderground v.1.15,2013-06-23 20:44:00,
2013-06-23 16:49:00,78.2,74.7,30.17,SW,228,7.0,-999.0,89,0.00,,,0.02,Wunderground v.1.15,2013-06-23 20:49:00,
2013-06-23 16:54:00,78.4,74.5,30.17,SSW,201,5.0,-999.0,88,0.00,,,0.02,Wunderground v.1.15,2013-06-23 20:54:00,
2013-06-23 16:59:00,78.7,74.8,30.17,WSW,242,9.0,-999.0,88,0.00,,,0.02,Wunderground v.1.15,2013-06-23 20:59:00,
2013-06-23 17:04:00,78.7,74.5,30.16,South,190,12.0,-999.0,87,0.00,,,0.02,Wunderground v.1.15,2013-06-23 21:04:00,
2013-06-23 17:09:00,78.9,74.7,30.16,SW,221,6.0,-999.0,87,0.00,,,0.02,Wunderground v.1.15,2013-06-23 21:09:00,
2013-06-23 17:14:00,78.7,74.5,30.16,SSW,200,6.0,-999.0,87,0.00,,,0.02,Wunderground v.1.15,2013-06-23 21:14:00,
2013-06-23 17:19:00,78.6,74.4,30.16,SW,219,6.0,-999.0,87,0.00,,,0.02,Wunderground v.1.15,2013-06-23 21:19:00,
2013-06-23 17:24:00,78.3,74.1,30.16,SSW,202,8.0,-999.0,87,0.00,,,0.02,Wunderground v.1.15,2013-06-23 21:24:00,
2013-06-23 17:29:00,78.2,74.0,30.16,SW,215,6.0,-999.0,87,0.00,,,0.02,Wunderground v.1.15,2013-06-23 21:29:00,
2013-06-23 17:34:00,78.0,73.8,30.17,SSW,204,3.0,-999.0,87,0.00,,,0.02,Wunderground v.1.15,2013-06-23 21:34:00,
2013-06-23 17:39:00,77.8,73.6,30.17,SW,221,4.0,-999.0,87,0.00,,,0.02,Wunderground v.1.15,2013-06-23 21:39:00,
2013-06-23 17:44:00,77.6,73.8,30.17,SW,221,7.0,-999.0,88,0.00,,,0.02,Wunderground v.1.15,2013-06-23 21:44:00,
2013-06-23 17:49:00,77.5,73.3,30.17,SSW,205,5.0,-999.0,87,0.00,,,0.02,Wunderground v.1.15,2013-06-23 21:49:00,
2013-06-23 17:54:00,77.6,73.8,30.17,SW,230,12.0,-999.0,88,0.00,,,0.02,Wunderground v.1.15,2013-06-23 21:54:00,
2013-06-23 17:59:00,77.6,73.8,30.17,SW,225,9.0,-999.0,88,0.00,,,0.02,Wunderground v.1.15,2013-06-23 21:59:00,
2013-06-23 18:04:00,77.6,73.8,30.17,WSW,244,3.0,-999.0,88,0.00,,,0.02,Wunderground v.1.15,2013-06-23 22:04:00,
2013-06-23 18:09:00,77.6,73.8,30.17,SW,222,5.0,-999.0,88,0.00,,,0.02,Wunderground v.1.15,2013-06-23 22:09:00,
2013-06-23 18:14:00,77.5,73.7,30.17,SW,221,8.0,-999.0,88,0.00,,,0.02,Wunderground v.1.15,2013-06-23 22:14:00,
2013-06-23 18:19:00,77.4,73.6,30.17,SW,227,4.0,-999.0,88,0.00,,,0.02,Wunderground v.1.15,2013-06-23 22:19:00,
2013-06-23 18:24:00,77.4,73.6,30.17,SW,217,7.0,-999.0,88,0.00,,,0.02,Wunderground v.1.15,2013-06-23 22:24:00,
2013-06-23 18:29:00,77.5,73.7,30.17,SW,227,5.0,-999.0,88,0.00,,,0.02,Wunderground v.1.15,2013-06-23 22:29:00,
2013-06-23 18:34:00,77.4,73.6,30.17,SW,223,5.0,-999.0,88,0.00,,,0.02,Wunderground v.1.15,2013-06-23 22:34:00,
2013-06-23 18:39:00,77.3,73.8,30.17,SW,223,4.0,-999.0,89,0.00,,,0.02,Wunderground v.1.15,2013-06-23 22:39:00,
2013-06-23 18:44:00,77.4,73.9,30.17,SW,215,4.0,-999.0,89,0.00,,,0.02,Wunderground v.1.15,2013-06-23 22:44:00,
2013-06-23 18:49:00,77.5,74.0,30.17,SW,225,5.0,-999.0,89,0.00,,,0.02,Wunderground v.1.15,2013-06-23 22:49:00,
2013-06-23 18:54:00,77.6,74.1,30.17,WSW,238,8.0,-999.0,89,0.00,,,0.02,Wunderground v.1.15,2013-06-23 22:54:00,
2013-06-23 18:59:00,77.7,74.2,30.17,SW,234,3.0,-999.0,89,0.00,,,0.02,Wunderground v.1.15,2013-06-23 22:59:00,
2013-06-23 19:04:00,77.7,74.5,30.17,SW,236,5.0,-999.0,90,0.00,,,0.02,Wunderground v.1.15,2013-06-23 23:04:00,
2013-06-23 19:09:00,77.6,74.4,30.17,SW,215,6.0,-999.0,90,0.00,,,0.02,Wunderground v.1.15,2013-06-23 23:09:00,
2013-06-23 19:15:00,77.7,74.5,30.16,SW,227,6.0,-999.0,90,0.00,,,0.02,Wunderground v.1.15,2013-06-23 23:15:00,
2013-06-23 19:20:00,77.8,74.6,30.17,SW,223,2.0,-999.0,90,0.00,,,0.02,Wunderground v.1.15,2013-06-23 23:20:00,
2013-06-23 19:25:00,77.8,74.6,30.17,SW,232,1.0,-999.0,90,0.00,,,0.02,Wunderground v.1.15,2013-06-23 23:25:00,
2013-06-23 19:30:00,77.7,74.5,30.17,SW,236,10.0,-999.0,90,0.00,,,0.02,Wunderground v.1.15,2013-06-23 23:30:00,
2013-06-23 19:35:00,77.6,74.8,30.17,SW,224,2.0,-999.0,91,0.00,,,0.02,Wunderground v.1.15,2013-06-23 23:35:00,
2013-06-23 19:40:00,77.5,74.7,30.16,SW,229,2.0,-999.0,91,0.00,,,0.02,Wunderground v.1.15,2013-06-23 23:40:00,
2013-06-23 19:45:00,77.5,74.7,30.16,WSW,238,0.0,-999.0,91,0.00,,,0.02,Wunderground v.1.15,2013-06-23 23:45:00,
2013-06-23 19:50:00,77.5,74.7,30.16,SW,234,5.0,-999.0,91,0.00,,,0.02,Wunderground v.1.15,2013-06-23 23:50:00,
2013-06-23 19:55:00,77.4,74.6,30.16,WSW,241,9.0,-999.0,91,0.00,,,0.02,Wunderground v.1.15,2013-06-23 23:55:00,
2013-06-23 20:00:00,77.4,74.6,30.16,SW,229,4.0,-999.0,91,0.00,,,0.02,Wunderground v.1.15,2013-06-24 00:00:00,
2013-06-23 20:05:00,77.3,74.5,30.15,SW,236,10.0,-999.0,91,0.00,,,0.02,Wunderground v.1.15,2013-06-24 00:05:00,
2013-06-23 20:10:00,77.3,74.5,30.15,SW,216,4.0,-999.0,91,0.00,,,0.02,Wunderground v.1.15,2013-06-24 00:10:00,
2013-06-23 20:15:00,77.2,74.7,30.15,SW,224,7.0,-999.0,92,0.00,,,0.02,Wunderground v.1.15,2013-06-24 00:15:00,
2013-06-23 20:20:00,77.0,74.2,30.15,SW,227,3.0,-999.0,91,0.00,,,0.02,Wunderground v.1.15,2013-06-24 00:20:00,
2013-06-23 20:25:00,76.9,74.1,30.15,SW,228,3.0,-999.0,91,0.00,,,0.02,Wunderground v.1.15,2013-06-24 00:25:00,
2013-06-23 20:30:00,76.8,74.0,30.14,SW,236,6.0,-999.0,91,0.00,,,0.02,Wunderground v.1.15,2013-06-24 00:30:00,
2013-06-23 20:35:00,76.8,74.0,30.14,SW,227,0.0,-999.0,91,0.00,,,0.02,Wunderground v.1.15,2013-06-24 00:35:00,
2013-06-23 20:40:00,76.8,74.0,30.14,SW,219,5.0,-999.0,91,0.00,,,0.02,Wunderground v.1.15,2013-06-24 00:40:00,
2013-06-23 20:45:00,76.8,74.0,30.14,SW,229,4.0,-999.0,91,0.00,,,0.02,Wunderground v.1.15,2013-06-24 00:45:00,
2013-06-23 20:50:00,76.7,73.9,30.14,WSW,238,10.0,-999.0,91,0.00,,,0.02,Wunderground v.1.15,2013-06-24 00:50:00,
2013-06-23 20:55:00,76.8,74.0,30.14,SW,227,4.0,-999.0,91,0.00,,,0.02,Wunderground v.1.15,2013-06-24 00:55:00,
2013-06-23 21:00:00,76.8,74.0,30.14,SW,228,12.0,-999.0,91,0.00,,,0.02,Wunderground v.1.15,2013-06-24 01:00:00,
2013-06-23 21:05:00,76.9,74.1,30.14,SW,225,5.0,-999.0,91,0.00,,,0.02,Wunderground v.1.15,2013-06-24 01:05:00,
2013-06-23 21:10:00,76.9,74.1,30.14,SW,223,5.0,-999.0,91,0.00,,,0.02,Wunderground v.1.15,2013-06-24 01:10:00,
2013-06-23 21:15:00,77.0,74.2,30.14,WSW,240,5.0,-999.0,91,0.00,,,0.02,Wunderground v.1.15,2013-06-24 01:15:00,
2013-06-23 21:20:00,77.0,74.2,30.14,WSW,240,10.0,-999.0,91,0.00,,,0.02,Wunderground v.1.15,2013-06-24 01:20:00,
2013-06-23 21:25:00,77.1,74.3,30.15,SW,233,5.0,-999.0,91,0.00,,,0.02,Wunderground v.1.15,2013-06-24 01:25:00,
2013-06-23 21:30:00,77.1,74.6,30.15,SSW,207,2.0,-999.0,92,0.00,,,0.02,Wunderground v.1.15,2013-06-24 01:30:00,
2013-06-23 21:35:00,77.1,74.6,30.15,SW,214,4.0,-999.0,92,0.00,,,0.02,Wunderground v.1.15,2013-06-24 01:35:00,
2013-06-23 21:40:00,77.1,74.6,30.16,SW,233,5.0,-999.0,92,0.00,,,0.02,Wunderground v.1.15,2013-06-24 01:40:00,
2013-06-23 21:45:00,77.1,74.6,30.16,SW,234,3.0,-999.0,92,0.00,,,0.02,Wunderground v.1.15,2013-06-24 01:45:00,
2013-06-23 21:50:00,77.2,74.7,30.17,SW,234,7.0,-999.0,92,0.00,,,0.02,Wunderground v.1.15,2013-06-24 01:50:00,
2013-06-23 21:55:00,77.2,74.7,30.17,SW,234,10.0,-999.0,92,0.00,,,0.02,Wunderground v.1.15,2013-06-24 01:55:00,
2013-06-23 22:00:00,77.2,74.7,30.18,WSW,244,7.0,-999.0,92,0.00,,,0.02,Wunderground v.1.15,2013-06-24 02:00:00,
2013-06-23 22:06:00,77.2,74.7,30.17,WSW,247,7.0,-999.0,92,0.00,,,0.02,Wunderground v.1.15,2013-06-24 02:06:00,
2013-06-23 22:11:00,77.3,74.8,30.17,WSW,244,7.0,-999.0,92,0.00,,,0.02,Wunderground v.1.15,2013-06-24 02:11:00,
2013-06-23 22:16:00,77.3,74.8,30.17,WSW,248,11.0,-999.0,92,0.00,,,0.02,Wunderground v.1.15,2013-06-24 02:16:00,
2013-06-23 22:21:00,77.3,74.8,30.17,WSW,244,2.0,-999.0,92,0.00,,,0.02,Wunderground v.1.15,2013-06-24 02:21:00,
2013-06-23 22:26:00,77.3,74.8,30.18,WSW,238,4.0,-999.0,92,0.00,,,0.02,Wunderground v.1.15,2013-06-24 02:26:00,
2013-06-23 22:31:00,77.3,74.8,30.17,WSW,238,3.0,-999.0,92,0.00,,,0.02,Wunderground v.1.15,2013-06-24 02:31:00,
2013-06-23 22:36:00,77.3,74.8,30.17,SW,236,4.0,-999.0,92,0.00,,,0.02,Wunderground v.1.15,2013-06-24 02:36:00,
2013-06-23 22:41:00,77.3,74.8,30.18,WSW,248,4.0,-999.0,92,0.00,,,0.02,Wunderground v.1.15,2013-06-24 02:41:00,
2013-06-23 22:46:00,77.3,74.8,30.17,WSW,241,9.0,-999.0,92,0.00,,,0.02,Wunderground v.1.15,2013-06-24 02:46:00,
2013-06-23 22:51:00,77.3,74.8,30.18,WSW,241,3.0,-999.0,92,0.00,,,0.02,Wunderground v.1.15,2013-06-24 02:51:00,
2013-06-23 22:56:00,77.3,75.1,30.17,WSW,246,4.0,-999.0,93,0.00,,,0.02,Wunderground v.1.15,2013-06-24 02:56:00,
2013-06-23 23:01:00,77.2,75.0,30.17,WSW,246,3.0,-999.0,93,0.00,,,0.02,Wunderground v.1.15,2013-06-24 03:01:00,
2013-06-23 23:06:00,77.2,75.0,30.17,WSW,240,5.0,-999.0,93,0.00,,,0.02,Wunderground v.1.15,2013-06-24 03:06:00,
2013-06-23 23:11:00,77.2,75.0,30.18,WSW,240,6.0,-999.0,93,0.00,,,0.02,Wunderground v.1.15,2013-06-24 03:11:00,
2013-06-23 23:16:00,77.2,75.0,30.18,WSW,248,3.0,-999.0,93,0.00,,,0.02,Wunderground v.1.15,2013-06-24 03:16:00,
2013-06-23 23:21:00,77.2,75.0,30.18,WSW,242,8.0,-999.0,93,0.00,,,0.02,Wunderground v.1.15,2013-06-24 03:21:00,
2013-06-23 23:26:00,77.2,75.0,30.18,WSW,242,2.0,-999.0,93,0.00,,,0.02,Wunderground v.1.15,2013-06-24 03:26:00,
2013-06-23 23:31:00,77.1,74.9,30.18,WSW,238,0.0,-999.0,93,0.00,,,0.02,Wunderground v.1.15,2013-06-24 03:31:00,
2013-06-23 23:36:00,77.1,74.9,30.18,WSW,242,3.0,-999.0,93,0.00,,,0.02,Wunderground v.1.15,2013-06-24 03:36:00,
2013-06-23 23:41:00,77.1,74.9,30.18,WSW,241,5.0,-999.0,93,0.00,,,0.02,Wunderground v.1.15,2013-06-24 03:41:00,
2013-06-23 23:46:00,77.0,74.8,30.18,WSW,242,6.0,-999.0,93,0.00,,,0.02,Wunderground v.1.15,2013-06-24 03:46:00,
2013-06-23 23:51:00,77.0,74.8,30.18,WSW,253,8.0,-999.0,93,0.00,,,0.02,Wunderground v.1.15,2013-06-24 03:51:00,
2013-06-23 23:56:00,76.9,74.7,30.18,WSW,249,2.0,-999.0,93,0.00,,,0.02,Wunderground v.1.15,2013-06-24 03:56:00,